Regional Weather Roundup
Issued by NWS

Home | Current Version | Previous Version | Text Only | Print | Product List | Glossary Off
Versions: 1 2 3 4 5 6 7 8 9 10 11 12 13 14 15 16 17 18 19 20 21 22 23 24 25 26 27 28 29 30 31 32 33 34 35 36 37 38 39 40 41 42 43 44 45 46 47 48

010
ASUS45 KCYS 051810
RWRWY

WYOMING REGIONAL WEATHER ROUNDUP
NATIONAL WEATHER SERVICE CHEYENNE WY
1100 AM MST FRI FEB 05 2016

NOTE:  "FAIR" INDICATES FEW OR NO CLOUDS BELOW 12,000 FEET
WITH NO SIGNIFICANT WEATHER AND/OR OBSTRUCTIONS TO VISIBILITY.

WYZ001-051900-
YELLOWSTONE NATIONAL PARK

CITY           SKY/WX    TMP DP  RH WIND       PRES   REMARKS
LK YELLOWSTONE   N/A     16  10  77 CALM      30.39S
6HR MIN TEMP:   1; 6HR MAX TEMP:  17;

W YELLOWSTONE  NOT AVBL

$$
WYZ002>013-054>058-071-098>099-051900-
NORTHERN WYOMING

CITY           SKY/WX    TMP DP  RH WIND       PRES   REMARKS
JACKSON        MOSUNNY   10   7  85 CALM      30.45S
CODY           FAIR      37  10  32 W16G24    30.24F WCI  28
GREYBULL       FAIR      25  13  60 S5        30.34F WCI  19
6HR MIN TEMP:  10; 6HR MAX TEMP:  25;

WORLAND        FAIR      26  14  60 SW5       30.33F WCI  20
6HR MIN TEMP:   8; 6HR MAX TEMP:  26;

SHERIDAN       MOSUNNY   37  14  38 E2        30.23F
6HR MIN TEMP:  19; 6HR MAX TEMP:  37;

BUFFALO        FAIR      34  13  41 S9        30.24S WCI  27
6HR MIN TEMP:  23; 6HR MAX TEMP:  34;

GILLETTE       FAIR      33  19  56 W14       30.24F WCI  23
6HR MIN TEMP:  24; 6HR MAX TEMP:  33;

HULETT         FAIR      34  21  60 W8        30.24F WCI  27
NEWCASTLE      FAIR      34  21  60 NW17G26   30.24S WCI  23

$$
WYZ014>020-022>026-101>103-051900-
CENTRAL WYOMING

CITY           SKY/WX    TMP DP  RH WIND       PRES   REMARKS
BIG PINEY      FAIR      20  10  65 S3        30.40S
6HR MIN TEMP:   9; 6HR MAX TEMP:  20;

PINEDALE       FAIR      23  12  63 W21G29    30.37R WCI   8
DUBOIS         FAIR      27   9  46 W25G38    30.29F WCI  11
LANDER         FAIR      24   9  52 SE7       30.30F WCI  16
6HR MIN TEMP:  12; 6HR MAX TEMP:  24;

RIVERTON       FAIR      21   5  50 S7        30.32S WCI  12
6HR MIN TEMP:   8; 6HR MAX TEMP:  21;

CASPER         FAIR      21  10  62 SW20      30.31F WCI   6
6HR MIN TEMP:  13; 6HR MAX TEMP:  21;

DOUGLAS        FAIR      25  12  58 NW13      30.31F WCI  14
6HR MIN TEMP:  16; 6HR MAX TEMP:  25;


$$
WYZ021-027>030-104>119-051900-
SOUTHERN WYOMING

CITY           SKY/WX    TMP DP  RH WIND       PRES   REMARKS
EVANSTON       CLOUDY    23  18  81 SW10      30.47R WCI  12
6HR MIN TEMP:  17; 6HR MAX TEMP:  23;

FORT BRIDGER   CLEAR     25  18  74 W20       30.47F WCI  11
ROCK SPRINGS   FAIR      21  14  74 W26       30.41R WCI   4
6HR MIN TEMP:  11; 6HR MAX TEMP:  21;

DIXON          LGT SNOW  15   8  73 CALM      30.48S
RAWLINS        FAIR      17   9  70 SW24      30.36S WCI  -1
6HR MIN TEMP:  10; 6HR MAX TEMP:  17;

SARATOGA       FAIR      21  10  63 SE6       30.39S WCI  14
LARAMIE        FAIR      21  11  65 W12       30.28R WCI   9
6HR MIN TEMP:   7; 6HR MAX TEMP:  21;

CHEYENNE       FAIR      27  10  49 NW18G29   30.29R WCI  14
6HR MIN TEMP:  16; 6HR MAX TEMP:  27;

TORRINGTON     FAIR      30  15  53 NW14      30.30S WCI  19
6HR MIN TEMP:  18; 6HR MAX TEMP:  30;

PINE BLUFFS    FAIR      30  18  59 NW23G30   30.30S WCI  17

$$




USA.gov is the U.S. government's official web portal to all federal, state and local government web resources and services.